Wind_Speed
49 50 51 53 54 55 57 59 60 61 61 59 56 54 52 49 48 47 46 45 45 45 45 43 42 42 41 39 40 40 40 39 38 37 36 35 34 31 27 25 26 27
46 48 50 51 53 54 56 57 58 60 62 62 59 57 55 54 51 50 49 48 47 46 47 47 45 45 44 43 42 42 42 41 40 39 37 36 36 34 30 28 29 30
43 45 47 49 51 53 55 56 57 58 61 63 63 60 58 56 55 54 53 53 52 49 49 49 48 47 47 47 45 44 43 42 41 41 40 38 37 36 34 33 31 32
37 41 43 45 48 50 53 55 57 58 59 62 64 64 61 59 58 57 57 56 56 54 52 51 50 49 49 48 48 47 46 44 43 43 43 42 40 39 38 37 35 34
32 35 38 41 44 47 49 52 55 57 59 61 63 65 65 64 62 60 59 59 59 58 57 54 52 51 50 51 51 50 49 47 46 46 45 44 43 42 41 41 41 40
31 32 34 37 40 43 46 49 52 54 57 60 62 64 66 67 66 64 63 62 61 61 61 59 57 54 52 52 53 53 52 51 49 48 47 47 46 45 44 45 46 46
33 34 34 35 37 40 42 45 48 51 54 57 59 62 64 66 68 68 67 66 65 64 63 63 62 59 56 54 53 54 55 55 54 52 51 50 49 48 48 48 49 48
34 36 37 37 38 39 40 42 44 47 50 53 56 58 61 64 66 68 69 70 69 69 67 66 65 64 62 58 55 54 55 56 57 56 55 53 52 52 52 52 51 49
40 40 40 40 41 41 41 42 43 44 47 50 53 56 58 61 63 66 68 70 71 72 72 71 69 68 67 64 61 58 57 57 57 58 58 57 55 55 56 56 53 51
50 49 48 46 45 44 44 44 44 45 46 47 49 52 55 57 60 62 65 67 69 71 73 74 73 71 70 69 67 64 61 60 59 59 59 59 58 58 59 59 58 55
59 59 58 55 52 50 49 48 48 48 48 48 49 51 52 55 57 60 62 64 66 68 70 73 74 74 73 73 72 69 67 65 63 62 62 61 60 60 61 62 62 60
65 67 67 64 60 57 55 53 52 52 51 51 51 52 53 54 55 57 59 62 64 66 67 69 71 73 74 74 74 74 72 70 68 66 64 64 63 63 63 64 65 64
69 71 73 72 69 66 63 61 59 57 56 55 55 55 55 56 57 57 58 59 62 64 65 67 68 70 72 73 74 75 74 74 73 71 68 67 66 65 65 66 66 67
73 75 76 76 75 73 71 68 66 64 62 61 60 59 59 59 60 60 60 60 61 62 64 66 67 68 69 71 72 73 74 74 74 74 73 71 70 68 67 67 68 68
79 79 79 79 79 78 77 75 73 71 68 66 65 65 64 64 64 64 63 63 63 62 63 65 67 68 69 70 71 72 73 74 75 75 75 75 74 73 71 69 69 69
82 82 81 81 81 81 80 79 78 76 74 72 70 69 68 68 69 68 68 68 67 66 65 65 66 67 68 70 72 73 73 74 75 75 76 76 76 75 75 74 72 71
84 84 84 83 83 82 82 81 80 79 77 76 75 73 71 71 71 72 72 73 73 73 72 70 68 67 67 69 72 74 76 76 77 77 76 76 76 76 77 77 76 74
85 85 84 84 83 82 81 80 80 79 78 77 76 75 74 73 73 73 75 76 77 78 78 77 75 72 71 71 72 74 76 78 80 80 78 76 76 76 77 78 79 78
85 84 83 82 82 81 80 80 79 78 78 77 77 76 75 74 74 74 75 76 78 79 80 80 79 77 75 75 75 75 75 77 79 82 82 80 77 76 77 78 80 80
82 81 80 80 80 79 79 78 78 77 77 77 77 77 76 76 75 75 75 75 77 78 80 81 80 79 78 78 79 78 77 76 78 80 83 85 83 80 78 78 80 81
78 78 77 77 77 77 76 76 75 75 75 75 75 75 75 76 76 76 76 75 76 76 77 79 79 79 79 80 80 81 80 79 78 79 81 84 87 87 84 81 81 81
77 76 76 76 76 75 75 74 74 73 73 73 73 73 74 74 75 76 76 76 76 76 76 77 77 77 78 79 80 82 82 81 81 81 81 82 86 89 90 88 85 83
78 78 78 77 77 76 75 75 74 74 73 73 73 73 73 74 74 74 74 74 75 75 76 76 75 75 76 78 80 81 82 83 82 82 83 83 84 87 90 93 92 89
81 81 81 80 79 78 78 77 76 75 75 74 74 74 74 74 74 74 74 74 74 75 75 75 74 74 75 77 79 80 82 83 83 83 84 85 86 86 88 91 95 95
83 83 83 82 82 81 80 80 79 78 77 76 76 75 75 74 74 74 74 74 74 74 74 74 73 73 74 76 78 80 81 82 83 84 84 85 87 88 89 89 92 95
81 81 80 80 79 78 78 78 77 77 77 77 77 76 76 75 74 74 74 74 73 73 73 73 73 73 74 76 78 79 80 81 83 84 85 86 87 88 90 90 91 92
Wind_Direction
250 247 245 244 243 243 242 241 239 238 237 238 238 238 237 237 236 235 235 238 241 241 241 240 238 238 237 236 235 234 235 237 239 243 246 247 245 244 247 248 251 255
254 251 248 246 245 244 244 243 242 239 237 237 238 239 239 238 237 236 235 235 238 241 243 243 242 239 237 237 237 236 236 237 239 241 244 245 243 243 246 246 248 250
258 255 253 250 248 246 245 244 244 242 239 238 238 238 238 239 238 238 236 235 236 238 241 243 243 241 239 239 238 237 236 237 238 240 242 243 242 242 243 246 249 249
263 259 257 255 252 250 248 246 245 244 242 240 239 239 238 238 239 239 238 236 236 237 239 241 242 242 241 240 239 238 237 238 238 239 240 242 241 240 241 243 246 247
273 267 263 259 256 253 251 249 247 246 245 243 241 240 240 239 239 240 240 239 238 238 239 240 239 239 240 241 240 239 238 238 239 239 240 240 240 240 241 242 244 245
278 275 270 266 262 258 255 253 250 248 247 246 244 243 242 241 241 241 241 240 240 239 240 241 241 239 239 239 240 240 239 238 239 240 240 240 240 239 240 242 243 243
281 277 274 271 268 264 261 257 254 252 249 248 247 246 245 244 243 243 242 242 242 241 240 241 242 242 240 239 239 239 239 238 239 240 240 240 239 239 240 240 242 242
292 286 280 276 272 269 266 263 260 256 253 251 249 248 247 246 245 245 244 244 243 243 243 242 242 242 242 241 240 239 239 238 238 238 240 240 239 239 240 240 241 241
296 294 290 285 279 274 270 267 264 261 258 255 253 250 249 248 247 246 245 245 244 244 244 244 244 243 243 243 242 240 239 238 238 237 238 239 239 239 240 241 241 240
294 294 293 290 285 280 275 271 268 265 262 260 257 255 252 250 249 248 247 246 245 245 244 245 245 244 243 243 243 241 240 239 239 239 238 239 239 239 239 240 240 240
293 293 293 291 287 283 279 275 272 268 265 263 261 259 256 253 251 250 249 248 247 246 245 245 245 245 245 244 244 243 242 240 239 239 240 240 239 239 239 239 239 240
290 291 291 290 288 284 281 277 274 271 268 265 263 261 259 257 254 252 250 249 248 247 246 245 244 245 245 245 244 245 244 243 241 240 239 239 240 240 240 239 239 239
286 287 288 288 287 285 282 279 276 273 270 267 265 262 261 259 257 255 252 250 249 248 247 246 245 244 244 244 244 244 245 245 244 242 239 238 239 239 239 239 239 239
283 284 284 284 284 283 282 280 277 274 271 268 266 264 261 259 258 257 254 252 249 248 247 246 245 244 243 243 243 243 243 244 244 244 242 240 238 237 237 237 238 238
281 281 281 281 281 280 280 279 277 275 272 269 266 263 261 259 258 256 255 254 251 249 248 246 245 244 243 243 242 242 241 242 242 243 243 242 240 239 237 235 235 235
279 279 279 278 278 277 277 276 276 275 273 271 268 264 261 259 257 256 255 254 253 251 250 248 247 245 244 243 242 241 241 240 240 241 241 241 241 240 238 237 235 233
278 278 278 277 277 276 275 275 274 273 272 271 269 266 263 260 257 256 255 254 253 252 252 251 249 248 247 245 244 242 241 240 239 239 239 239 240 239 239 239 238 236
278 278 278 277 276 276 275 274 273 272 271 270 269 267 265 262 259 257 255 254 254 253 253 252 251 250 249 248 246 245 243 241 240 239 238 238 239 238 238 238 239 238
278 278 277 277 276 275 275 274 273 272 271 270 269 268 266 264 262 259 257 255 254 253 253 253 252 251 250 250 249 247 245 243 241 240 239 238 238 238 237 237 238 238
278 277 277 276 275 274 274 273 272 271 270 269 269 268 267 265 263 261 259 256 255 254 253 253 253 252 251 251 250 249 247 245 244 242 240 239 238 238 237 237 236 237
279 278 277 276 275 274 273 272 271 270 269 268 268 267 266 265 264 262 260 258 256 255 254 253 252 252 251 251 250 250 248 246 245 244 242 240 238 238 238 237 236 235
281 280 278 277 276 275 274 273 272 270 269 268 267 266 265 264 263 262 261 260 258 256 255 253 252 252 251 250 250 250 249 248 246 244 244 242 240 238 237 237 237 235
283 282 280 279 278 277 275 274 273 271 270 269 267 266 265 263 262 261 260 260 259 257 255 254 252 251 251 250 249 249 249 248 247 245 244 243 242 240 238 237 237 236
284 283 282 281 280 279 277 276 275 273 272 270 268 266 265 263 262 261 260 259 258 257 256 254 253 251 250 249 249 248 248 248 247 246 245 243 243 241 240 238 237 236
284 283 282 281 280 279 277 276 275 274 272 271 269 268 266 264 263 262 260 259 257 256 255 254 253 251 250 249 248 247 247 247 247 246 246 244 243 242 241 240 238 236
284 283 282 281 280 279 277 276 274 273 271 270 269 268 266 265 264 263 261 260 258 257 255 253 252 250 250 249 248 247 246 246 246 245 245 245 244 243 242 241 240 238
Height
10906 10907 10908 10909 10910 10911 10912 10913 10914 10915 10916 10917 10918 10919 10920 10921 10922 10923 10924 10924 10925 10925 10926 10927 10928 10928 10928 10928 10929 10931 10933 10934 10935 10936 10938 10940 10941 10942 10943 10943 10944 10944
10900 10901 10902 10903 10903 10904 10905 10906 10907 10908 10910 10911 10911 10913 10914 10915 10916 10917 10918 10919 10920 10920 10921 10922 10923 10923 10924 10924 10925 10926 10928 10929 10931 10932 10934 10935 10936 10938 10939 10940 10940 10941
10895 10895 10895 10896 10897 10897 10898 10899 10900 10901 10902 10904 10905 10906 10907 10908 10909 10910 10911 10912 10914 10915 10916 10916 10917 10918 10918 10919 10921 10922 10923 10925 10927 10928 10929 10930 10932 10933 10935 10936 10937 10937
10890 10890 10889 10890 10890 10890 10891 10892 10893 10894 10895 10896 10897 10899 10900 10901 10902 10903 10904 10905 10907 10908 10910 10911 10911 10912 10913 10914 10915 10917 10919 10920 10922 10923 10924 10925 10927 10929 10930 10932 10932 10933
10884 10884 10884 10884 10884 10884 10884 10885 10886 10886 10887 10889 10890 10891 10893 10894 10894 10896 10897 10898 10900 10902 10903 10904 10905 10906 10907 10908 10909 10911 10913 10915 10916 10917 10919 10920 10922 10925 10926 10927 10927 10928
10880 10879 10879 10878 10878 10878 10878 10878 10879 10880 10880 10881 10883 10884 10885 10886 10887 10888 10890 10891 10893 10894 10896 10897 10899 10900 10901 10902 10903 10905 10907 10908 10910 10911 10913 10915 10917 10919 10920 10920 10920 10921
10875 10874 10874 10873 10873 10872 10872 10872 10872 10873 10873 10874 10875 10875 10876 10878 10879 10880 10882 10883 10884 10886 10888 10889 10891 10893 10895 10896 10897 10898 10900 10902 10903 10905 10907 10908 10910 10912 10913 10912 10912 10915
10870 10869 10869 10869 10868 10867 10867 10866 10866 10866 10866 10866 10867 10867 10868 10869 10870 10872 10873 10874 10876 10877 10879 10881 10883 10885 10887 10889 10890 10892 10893 10895 10897 10898 10899 10901 10904 10905 10905 10904 10907 10910
10865 10865 10864 10863 10862 10862 10861 10861 10860 10860 10859 10859 10859 10860 10860 10861 10862 10862 10864 10865 10867 10868 10870 10872 10874 10876 10878 10880 10882 10884 10886 10887 10889 10890 10891 10893 10896 10898 10898 10898 10901 10904
10859 10858 10858 10857 10856 10856 10855 10854 10854 10853 10853 10852 10852 10852 10852 10853 10853 10854 10854 10856 10857 10859 10861 10862 10864 10866 10869 10871 10873 10875 10877 10879 10882 10883 10884 10885 10888 10890 10891 10892 10894 10896
10850 10849 10849 10849 10849 10848 10848 10847 10846 10846 10846 10845 10845 10844 10844 10845 10845 10845 10846 10847 10848 10849 10851 10853 10854 10857 10859 10861 10864 10865 10868 10871 10873 10874 10875 10877 10879 10881 10883 10885 10886 10888
10841 10840 10840 10840 10840 10839 10839 10839 10838 10838 10838 10838 10837 10837 10836 10836 10836 10836 10837 10838 10838 10839 10841 10843 10844 10846 10849 10852 10854 10856 10858 10860 10863 10865 10867 10869 10871 10873 10875 10877 10879 10880
10833 10831 10830 10830 10830 10829 10829 10828 10828 10828 10828 10828 10829 10829 10828 10827 10827 10827 10828 10828 10829 10830 10831 10833 10834 10836 10839 10841 10843 10846 10848 10849 10852 10855 10858 10861 10863 10865 10866 10868 10870 10872
10823 10822 10821 10820 10819 10818 10818 10818 10817 10817 10817 10817 10818 10818 10818 10818 10817 10817 10817 10818 10819 10820 10820 10822 10824 10826 10829 10830 10832 10835 10837 10839 10841 10844 10847 10850 10853 10856 10858 10859 10862 10864
10813 10812 10810 10809 10808 10807 10806 10806 10806 10805 10805 10805 10806 10806 10807 10807 10806 10806 10807 10808 10809 10810 10810 10811 10813 10816 10819 10820 10822 10824 10826 10828 10830 10833 10835 10839 10842 10845 10848 10850 10852 10854
10801 10800 10799 10797 10796 10794 10793 10793 10793 10793 10793 10792 10792 10793 10794 10795 10795 10795 10796 10796 10797 10798 10799 10801 10803 10806 10809 10810 10811 10813 10815 10817 10819 10821 10824 10827 10830 10834 10837 10840 10842 10844
10789 10787 10786 10785 10783 10781 10780 10780 10779 10779 10779 10779 10779 10779 10780 10782 10783 10784 10784 10785 10785 10786 10787 10789 10793 10796 10799 10800 10800 10802 10804 10805 10806 10809 10812 10816 10819 10823 10826 10829 10832 10834
10776 10774 10773 10771 10769 10768 10766 10766 10766 10765 10765 10765 10764 10765 10766 10767 10769 10771 10771 10772 10772 10773 10774 10776 10781 10785 10788 10788 10789 10790 10792 10794 10796 10798 10802 10806 10809 10812 10815 10818 10820 10823
10762 10761 10759 10757 10755 10754 10753 10752 10752 10751 10751 10751 10750 10750 10751 10752 10754 10756 10757 10758 10758 10759 10761 10763 10768 10773 10776 10776 10777 10778 10780 10783 10786 10788 10790 10794 10797 10800 10803 10806 10809 10811
10748 10747 10745 10743 10741 10740 10739 10738 10738 10737 10737 10737 10736 10736 10736 10737 10739 10740 10742 10744 10745 10746 10748 10750 10754 10759 10762 10763 10764 10765 10768 10771 10774 10776 10779 10782 10785 10789 10791 10793 10796 10799
10735 10733 10731 10729 10727 10726 10725 10724 10724 10723 10723 10723 10723 10722 10722 10723 10723 10724 10726 10728 10731 10733 10734 10737 10741 10745 10748 10750 10751 10752 10754 10758 10761 10763 10766 10769 10772 10775 10778 10780 10783 10787
10720 10719 10717 10715 10713 10712 10711 10710 10709 10709 10709 10709 10709 10709 10708 10708 10708 10709 10711 10713 10716 10718 10721 10724 10728 10732 10734 10736 10737 10738 10740 10744 10747 10750 10752 10755 10757 10760 10764 10767 10769 10774
10705 10703 10701 10699 10698 10697 10696 10696 10695 10694 10695 10695 10695 10694 10694 10693 10694 10695 10697 10699 10701 10703 10706 10709 10714 10718 10720 10721 10723 10724 10726 10729 10732 10735 10738 10740 10742 10745 10749 10753 10756 10761
10690 10687 10685 10683 10682 10681 10681 10680 10679 10679 10679 10679 10679 10679 10679 10679 10680 10681 10683 10685 10686 10688 10691 10695 10700 10704 10706 10707 10708 10710 10712 10714 10717 10721 10723 10725 10727 10730 10734 10738 10742 10747
10675 10672 10669 10667 10666 10665 10665 10664 10663 10663 10663 10663 10663 10664 10664 10664 10666 10667 10668 10670 10673 10675 10677 10681 10685 10689 10691 10691 10693 10695 10698 10701 10704 10706 10708 10711 10713 10715 10719 10723 10727 10732
10659 10656 10653 10651 10650 10649 10648 10647 10647 10647 10647 10647 10647 10648 10648 10650 10651 10652 10653 10655 10658 10660 10663 10666 10670 10674 10676 10676 10677 10681 10685 10687 10690 10692 10693 10695 10698 10701 10704 10708 10713 10719